| time (UTC) | temp C | wind direction | speed KPH | gust KPH | rain 1hr cm | rain 24hr cm | rain mn cm | humidity % | barometer mb |
| 20260502121204 | 11 | 322 | 3.2 | 8.0 | 0.00 | 0.00 | 0.00 | 89 | 1012.5 |
| 20260502120703 | 11 | 0 | 4.8 | 11.3 | 0.00 | 0.00 | 0.00 | 89 | 1012.3 |
| 20260502120204 | 12 | 314 | 3.2 | 4.8 | 0.00 | 0.00 | 0.00 | 88 | 1012.5 |
| 20260502113703 | 12 | 304 | 3.2 | 4.8 | 0.00 | 0.00 | 0.00 | 87 | 1012.5 |
| 20260502112703 | 13 | 297 | 1.6 | 4.8 | 0.00 | 0.00 | 0.00 | 87 | 1012.4 |
| 20260502111704 | 13 | 320 | 3.2 | 8.0 | 0.00 | 0.00 | 0.00 | 86 | 1012.3 |
| 20260502111204 | 14 | 277 | 4.8 | 11.3 | 0.00 | 0.00 | 0.00 | 86 | 1012.2 |
| 20260502110704 | 13 | 281 | 1.6 | 8.0 | 0.00 | 0.00 | 0.00 | 86 | 1012.3 |
| 20260502110204 | 14 | 48 | 3.2 | 4.8 | 0.00 | 0.00 | 0.00 | 86 | 1012.4 |
| 20260502105703 | 13 | 146 | 4.8 | 9.7 | 0.00 | 0.00 | 0.00 | 87 | 1012.4 |
| 20260502105204 | 13 | 56 | 4.8 | 11.3 | 0.00 | 0.00 | 0.00 | 88 | 1012.4 |
| 20260502104704 | 13 | 76 | 3.2 | 9.7 | 0.00 | 0.00 | 0.00 | 89 | 1012.4 |
| 20260502104203 | 12 | 109 | 1.6 | 4.8 | 0.00 | 0.00 | 0.00 | 89 | 1012.4 |
| 20260502103703 | 12 | 149 | 1.6 | 4.8 | 0.00 | 0.00 | 0.00 | 89 | 1012.4 |
| 20260502103203 | 12 | 84 | 1.6 | 4.8 | 0.00 | 0.00 | 0.00 | 90 | 1012.5 |
| 20260502102703 | 12 | 223 | 1.6 | 4.8 | 0.00 | 0.00 | 0.00 | 91 | 1012.6 |
| 20260502102204 | 12 | 202 | 3.2 | 4.8 | 0.00 | 0.00 | 0.00 | 91 | 1012.7 |
| 20260502101705 | 12 | 149 | 4.8 | 11.3 | 0.00 | 0.00 | 0.00 | 91 | 1012.8 |
| 20260502101204 | 12 | 195 | 3.2 | 9.7 | 0.00 | 0.00 | 0.00 | 92 | 1012.7 |
| 20260502100203 | 12 | 162 | 3.2 | 9.7 | 0.00 | 0.00 | 0.00 | 92 | 1012.8 |
| 20260502091204 | 11 | 204 | 3.2 | 8.0 | 0.00 | 0.00 | 0.00 | 94 | 1013.0 |
| 20260502090705 | 11 | 121 | 1.6 | 4.8 | 0.00 | 0.00 | 0.00 | 95 | 1013.1 |
| 20260502090203 | 11 | 60 | 1.6 | 4.8 | 0.00 | 0.00 | 0.00 | 95 | 1013.2 |
| 20260502071203 | 10 | 93 | 0.0 | 0.0 | 0.00 | 0.00 | 0.00 | 96 | 1013.1 |
| 20260502070704 | 10 | 93 | 0.0 | 0.0 | 0.00 | 0.00 | 0.00 | 95 | 1013.1 |
| 20260502070204 | 10 | 93 | 0.0 | 0.0 | 0.00 | 0.00 | 0.00 | 95 | 1013.0 |
| 20260502065704 | 10 | 93 | 0.0 | 0.0 | 0.00 | 0.00 | 0.00 | 96 | 1013.1 |
| 20260502064703 | 9 | 93 | 0.0 | 0.0 | 0.00 | 0.00 | 0.00 | 95 | 1013.1 |
| 20260502064204 | 9 | 93 | 0.0 | 0.0 | 0.00 | 0.00 | 0.00 | 95 | 1013.0 |
| 20260502063704 | 9 | 93 | 0.0 | 0.0 | 0.00 | 0.00 | 0.00 | 95 | 1013.1 |
| 20260502063203 | 8 | 93 | 0.0 | 0.0 | 0.00 | 0.00 | 0.00 | 95 | 1013.1 |
| 20260502062703 | 8 | 93 | 0.0 | 0.0 | 0.00 | 0.00 | 0.00 | 95 | 1013.1 |
| 20260502062204 | 8 | 93 | 0.0 | 0.0 | 0.00 | 0.00 | 0.00 | 95 | 1013.2 |
| 20260502061203 | 8 | 93 | 0.0 | 0.0 | 0.00 | 0.00 | 0.00 | 95 | 1013.2 |
| 20260502060703 | 7 | 93 | 0.0 | 0.0 | 0.00 | 0.00 | 0.00 | 95 | 1013.2 |
| 20260502055703 | 7 | 93 | 0.0 | 3.2 | 0.00 | 0.00 | 0.00 | 95 | 1013.2 |
| 20260502055203 | 7 | 93 | 1.6 | 3.2 | 0.00 | 0.00 | 0.00 | 95 | 1013.2 |
| 20260502054703 | 7 | 93 | 1.6 | 3.2 | 0.00 | 0.00 | 0.00 | 95 | 1013.3 |
| 20260502054203 | 7 | 93 | 1.6 | 3.2 | 0.00 | 0.00 | 0.00 | 95 | 1013.3 |
| 20260502053703 | 7 | 93 | 0.0 | 3.2 | 0.00 | 0.00 | 0.00 | 95 | 1013.4 |
| 20260502053203 | 7 | 93 | 1.6 | 3.2 | 0.00 | 0.00 | 0.00 | 95 | 1013.3 |
| 20260502052704 | 6 | 93 | 0.0 | 1.6 | 0.00 | 0.00 | 0.00 | 95 | 1013.4 |
| 20260502051704 | 6 | 93 | 0.0 | 1.6 | 0.00 | 0.00 | 0.00 | 95 | 1013.6 |
| 20260502051204 | 6 | 93 | 1.6 | 3.2 | 0.00 | 0.00 | 0.00 | 94 | 1013.5 |
| 20260502050703 | 6 | 93 | 1.6 | 3.2 | 0.00 | 0.00 | 0.00 | 95 | 1013.6 |
| 20260502045703 | 6 | 124 | 3.2 | 4.8 | 0.00 | 0.00 | 0.00 | 95 | 1013.6 |
| 20260502045203 | 6 | 95 | 3.2 | 3.2 | 0.00 | 0.00 | 0.00 | 95 | 1013.5 |
| 20260502044704 | 6 | 82 | 1.6 | 3.2 | 0.00 | 0.00 | 0.00 | 94 | 1013.6 |
| 20260502044203 | 6 | 82 | 3.2 | 3.2 | 0.00 | 0.00 | 0.00 | 94 | 1013.7 |
| 20260502043703 | 6 | 82 | 3.2 | 4.8 | 0.00 | 0.00 | 0.00 | 94 | 1013.5 |
| 20260502043203 | 5 | 79 | 3.2 | 4.8 | 0.00 | 0.00 | 0.00 | 94 | 1013.5 |
| 20260502042703 | 5 | 76 | 0.0 | 0.0 | 0.00 | 0.00 | 0.00 | 94 | 1013.6 |
| 20260502042204 | 5 | 76 | 0.0 | 0.0 | 0.00 | 0.00 | 0.00 | 94 | 1013.7 |
| 20260502041704 | 6 | 76 | 0.0 | 0.0 | 0.00 | 0.00 | 0.00 | 94 | 1013.7 |
| 20260502040703 | 6 | 76 | 0.0 | 0.0 | 0.00 | 0.00 | 0.00 | 94 | 1013.6 |
| 20260502040203 | 6 | 76 | 0.0 | 0.0 | 0.00 | 0.00 | 0.00 | 94 | 1013.6 |
| 20260502035703 | 6 | 76 | 0.0 | 0.0 | 0.00 | 0.00 | 0.00 | 94 | 1013.7 |
| 20260502035204 | 6 | 76 | 0.0 | 1.6 | 0.00 | 0.00 | 0.00 | 94 | 1013.7 |
| 20260502034705 | 6 | 76 | 1.6 | 1.6 | 0.00 | 0.00 | 0.00 | 94 | 1013.7 |
| 20260502034204 | 6 | 76 | 1.6 | 3.2 | 0.00 | 0.00 | 0.00 | 94 | 1013.6 |
| 20260502033703 | 6 | 76 | 1.6 | 1.6 | 0.00 | 0.00 | 0.00 | 94 | 1013.8 |
| 20260502032703 | 6 | 76 | 0.0 | 0.0 | 0.00 | 0.00 | 0.00 | 94 | 1014.0 |
| 20260502031703 | 6 | 76 | 1.6 | 3.2 | 0.00 | 0.00 | 0.00 | 94 | 1014.0 |
| 20260502030704 | 6 | 76 | 0.0 | 3.2 | 0.00 | 0.00 | 0.00 | 94 | 1014.0 |
| 20260502030203 | 6 | 76 | 1.6 | 3.2 | 0.00 | 0.00 | 0.00 | 94 | 1014.0 |
| 20260502025703 | 6 | 76 | 3.2 | 4.8 | 0.00 | 0.00 | 0.00 | 93 | 1014.0 |
| 20260502024703 | 7 | 76 | 0.0 | 0.0 | 0.00 | 0.00 | 0.00 | 94 | 1014.1 |
| 20260502024204 | 7 | 76 | 0.0 | 0.0 | 0.00 | 0.00 | 0.00 | 94 | 1014.1 |
| 20260502023703 | 7 | 76 | 0.0 | 0.0 | 0.00 | 0.00 | 0.00 | 94 | 1014.2 |
| 20260502023204 | 7 | 76 | 0.0 | 0.0 | 0.00 | 0.00 | 0.00 | 93 | 1014.2 |
| 20260502022703 | 7 | 76 | 0.0 | 0.0 | 0.00 | 0.00 | 0.00 | 94 | 1014.3 |
| 20260502022203 | 7 | 76 | 0.0 | 0.0 | 0.00 | 0.00 | 0.00 | 94 | 1014.3 |
| 20260502021704 | 7 | 76 | 0.0 | 0.0 | 0.00 | 0.00 | 0.00 | 93 | 1014.2 |
| 20260502021204 | 7 | 76 | 0.0 | 0.0 | 0.00 | 0.00 | 0.00 | 93 | 1014.3 |
| 20260502020703 | 7 | 76 | 0.0 | 0.0 | 0.00 | 0.00 | 0.00 | 93 | 1014.4 |
| 20260502020203 | 7 | 76 | 0.0 | 0.0 | 0.00 | 0.00 | 0.00 | 94 | 1014.3 |
| 20260502015704 | 7 | 76 | 0.0 | 0.0 | 0.00 | 0.00 | 0.00 | 94 | 1014.5 |
| 20260502014703 | 7 | 76 | 3.2 | 3.2 | 0.00 | 0.00 | 0.00 | 93 | 1014.5 |
| 20260502014204 | 7 | 76 | 3.2 | 4.8 | 0.00 | 0.00 | 0.00 | 93 | 1014.6 |
| 20260502013703 | 7 | 76 | 3.2 | 4.8 | 0.00 | 0.00 | 0.00 | 93 | 1014.7 |
| 20260502013204 | 6 | 91 | 0.0 | 0.0 | 0.00 | 0.00 | 0.00 | 93 | 1014.8 |
| 20260502012703 | 7 | 232 | 0.0 | 0.0 | 0.00 | 0.00 | 0.00 | 93 | 1014.8 |
| 20260502011704 | 7 | 232 | 0.0 | 0.0 | 0.00 | 0.00 | 0.00 | 93 | 1015.1 |
| 20260502011204 | 7 | 232 | 0.0 | 0.0 | 0.00 | 0.00 | 0.00 | 93 | 1015.1 |
| 20260502010703 | 7 | 232 | 0.0 | 0.0 | 0.00 | 0.00 | 0.00 | 93 | 1015.3 |
| 20260502010204 | 7 | 232 | 0.0 | 0.0 | 0.00 | 0.00 | 0.00 | 93 | 1015.3 |
| 20260502005703 | 7 | 232 | 0.0 | 0.0 | 0.00 | 0.00 | 0.00 | 93 | 1015.3 |
| 20260502005204 | 7 | 232 | 0.0 | 0.0 | 0.00 | 0.00 | 0.00 | 93 | 1015.3 |
| 20260502004703 | 7 | 232 | 0.0 | 0.0 | 0.00 | 0.00 | 0.00 | 93 | 1015.4 |
| 20260502003704 | 7 | 232 | 1.6 | 3.2 | 0.00 | 0.00 | 0.00 | 92 | 1015.5 |
| 20260502003203 | 7 | 232 | 1.6 | 3.2 | 0.00 | 0.00 | 0.00 | 92 | 1015.3 |
| 20260502002203 | 7 | 232 | 1.6 | 3.2 | 0.00 | 0.00 | 0.00 | 92 | 1015.4 |
| 20260502001704 | 7 | 232 | 0.0 | 1.6 | 0.00 | 0.00 | 0.00 | 92 | 1015.4 |
| 20260502001203 | 7 | 232 | 0.0 | 1.6 | 0.00 | 0.00 | 0.00 | 92 | 1015.5 |
| 20260502000704 | 8 | 232 | 0.0 | 1.6 | 0.00 | 0.00 | 0.00 | 92 | 1015.4 |
| 20260502000204 | 8 | 232 | 1.6 | 3.2 | 0.00 | 0.00 | 0.00 | 92 | 1015.4 |
| 20260501235204 | 8 | 232 | 0.0 | 0.0 | 0.00 | 0.00 | 0.00 | 92 | 1015.4 |
| 20260501234703 | 8 | 240 | 0.0 | 1.6 | 0.00 | 0.00 | 0.00 | 92 | 1015.5 |
| 20260501232703 | 8 | 111 | 1.6 | 1.6 | 0.00 | 0.00 | 0.00 | 92 | 1015.4 |
| 20260501232203 | 8 | 111 | 1.6 | 3.2 | 0.00 | 0.00 | 0.00 | 92 | 1015.4 |
| 20260501231203 | 9 | 111 | 0.0 | 0.0 | 0.00 | 0.00 | 0.00 | 92 | 1015.4 |
| 20260501230704 | 9 | 111 | 0.0 | 0.0 | 0.00 | 0.00 | 0.00 | 92 | 1015.3 |
| 20260501230203 | 9 | 111 | 0.0 | 1.6 | 0.00 | 0.00 | 0.00 | 92 | 1015.4 |
| 20260501225704 | 9 | 111 | 1.6 | 4.8 | 0.00 | 0.00 | 0.00 | 92 | 1015.4 |
| 20260501225203 | 9 | 111 | 3.2 | 4.8 | 0.00 | 0.00 | 0.00 | 92 | 1015.4 |
| 20260501224703 | 9 | 105 | 1.6 | 3.2 | 0.00 | 0.00 | 0.00 | 92 | 1015.5 |
| 20260501224203 | 9 | 105 | 1.6 | 3.2 | 0.00 | 0.00 | 0.00 | 92 | 1015.5 |
| 20260501223703 | 9 | 105 | 1.6 | 3.2 | 0.00 | 0.00 | 0.00 | 92 | 1015.5 |
| 20260501223203 | 9 | 103 | 3.2 | 4.8 | 0.00 | 0.00 | 0.00 | 92 | 1015.6 |
| 20260501222703 | 9 | 97 | 0.0 | 0.0 | 0.00 | 0.03 | 0.00 | 92 | 1015.6 |
| 20260501221204 | 9 | 82 | 3.2 | 4.8 | 0.00 | 0.03 | 0.00 | 91 | 1015.7 |
| 20260501220703 | 9 | 57 | 0.0 | 0.0 | 0.00 | 0.03 | 0.00 | 91 | 1015.7 |
| 20260501220203 | 9 | 57 | 0.0 | 0.0 | 0.00 | 0.03 | 0.00 | 91 | 1015.7 |
| 20260501215703 | 9 | 57 | 0.0 | 0.0 | 0.00 | 0.03 | 0.00 | 90 | 1015.7 |
| 20260501214702 | 10 | 54 | 0.0 | 0.0 | 0.00 | 0.03 | 0.00 | 90 | 1015.8 |
| 20260501213204 | 10 | 9 | 0.0 | 0.0 | 0.00 | 0.03 | 0.00 | 90 | 1016.0 |
| 20260501212203 | 10 | 9 | 0.0 | 0.0 | 0.00 | 0.03 | 0.00 | 90 | 1016.0 |
| 20260501211703 | 10 | 9 | 0.0 | 0.0 | 0.00 | 0.03 | 0.00 | 90 | 1016.0 |
| 20260501210203 | 11 | 9 | 0.0 | 0.0 | 0.00 | 0.03 | 0.00 | 90 | 1016.0 |
| 20260501205703 | 11 | 9 | 0.0 | 0.0 | 0.00 | 0.03 | 0.00 | 90 | 1016.1 |
| 20260501205203 | 11 | 9 | 0.0 | 0.0 | 0.00 | 0.05 | 0.00 | 90 | 1016.0 |
| 20260501204703 | 11 | 9 | 0.0 | 0.0 | 0.00 | 0.05 | 0.00 | 90 | 1016.0 |
| 20260501204203 | 11 | 9 | 0.0 | 0.0 | 0.00 | 0.05 | 0.00 | 90 | 1016.0 |
| 20260501203703 | 11 | 9 | 0.0 | 0.0 | 0.00 | 0.05 | 0.00 | 90 | 1016.0 |
| 20260501203203 | 11 | 9 | 0.0 | 0.0 | 0.00 | 0.05 | 0.00 | 90 | 1015.9 |
| 20260501202703 | 11 | 9 | 0.0 | 0.0 | 0.00 | 0.05 | 0.00 | 90 | 1015.8 |
| 20260501202203 | 11 | 9 | 0.0 | 0.0 | 0.00 | 0.05 | 0.00 | 90 | 1015.9 |
| 20260501201703 | 11 | 9 | 0.0 | 0.0 | 0.00 | 0.08 | 0.00 | 90 | 1016.0 |
| 20260501201203 | 11 | 9 | 0.0 | 0.0 | 0.00 | 0.10 | 0.00 | 90 | 1016.0 |
| 20260501200703 | 11 | 9 | 0.0 | 0.0 | 0.00 | 0.10 | 0.00 | 89 | 1015.9 |
| 20260501200203 | 11 | 19 | 0.0 | 1.6 | 0.00 | 0.10 | 0.00 | 89 | 1016.1 |
| 20260501195203 | 11 | 19 | 1.6 | 3.2 | 0.00 | 0.10 | 0.00 | 89 | 1015.9 |
| 20260501194703 | 11 | 5 | 3.2 | 4.8 | 0.00 | 0.10 | 0.00 | 89 | 1016.0 |
| 20260501194203 | 11 | 18 | 3.2 | 4.8 | 0.00 | 0.10 | 0.00 | 89 | 1015.9 |
| 20260501193204 | 11 | 20 | 1.6 | 4.8 | 0.00 | 0.10 | 0.00 | 89 | 1016.0 |
| 20260501192703 | 11 | 29 | 3.2 | 4.8 | 0.00 | 0.10 | 0.00 | 89 | 1016.0 |
| 20260501192203 | 11 | 12 | 3.2 | 4.8 | 0.00 | 0.10 | 0.00 | 89 | 1015.9 |
| 20260501191703 | 11 | 55 | 4.8 | 8.0 | 0.00 | 0.13 | 0.00 | 89 | 1015.8 |
| 20260501190704 | 11 | 60 | 3.2 | 4.8 | 0.00 | 0.13 | 0.00 | 89 | 1015.8 |
| 20260501190204 | 11 | 69 | 3.2 | 8.0 | 0.00 | 0.15 | 0.00 | 89 | 1015.8 |
| 20260501185703 | 11 | 70 | 3.2 | 4.8 | 0.00 | 0.15 | 0.00 | 88 | 1015.8 |
| 20260501185203 | 11 | 65 | 3.2 | 4.8 | 0.00 | 0.15 | 0.00 | 88 | 1015.7 |
| 20260501184704 | 12 | 17 | 3.2 | 4.8 | 0.00 | 0.15 | 0.00 | 88 | 1015.8 |
| 20260501184203 | 12 | 22 | 3.2 | 4.8 | 0.00 | 0.15 | 0.00 | 88 | 1015.8 |
| 20260501183703 | 12 | 55 | 4.8 | 8.0 | 0.00 | 0.18 | 0.00 | 88 | 1015.7 |
| 20260501183203 | 12 | 21 | 4.8 | 8.0 | 0.00 | 0.18 | 0.00 | 88 | 1015.7 |
| 20260501182703 | 12 | 33 | 3.2 | 8.0 | 0.00 | 0.18 | 0.00 | 88 | 1015.8 |
| 20260501182204 | 12 | 66 | 3.2 | 8.0 | 0.00 | 0.18 | 0.00 | 88 | 1015.8 |
| 20260501181703 | 12 | 12 | 4.8 | 8.0 | 0.00 | 0.18 | 0.00 | 87 | 1015.8 |
| 20260501181204 | 12 | 17 | 4.8 | 8.0 | 0.00 | 0.20 | 0.00 | 87 | 1015.8 |
| 20260501180703 | 12 | 32 | 1.6 | 4.8 | 0.00 | 0.20 | 0.00 | 87 | 1015.6 |
| 20260501180203 | 12 | 24 | 8.0 | 12.9 | 0.00 | 0.23 | 0.00 | 87 | 1015.7 |
| 20260501175203 | 12 | 16 | 8.0 | 14.5 | 0.00 | 0.23 | 0.00 | 87 | 1015.8 |
| 20260501174703 | 12 | 24 | 4.8 | 11.3 | 0.00 | 0.23 | 0.00 | 87 | 1015.8 |
| 20260501174204 | 12 | 37 | 4.8 | 9.7 | 0.00 | 0.25 | 0.00 | 87 | 1015.7 |
| 20260501173703 | 12 | 11 | 4.8 | 12.9 | 0.00 | 0.28 | 0.00 | 87 | 1015.7 |
| 20260501173203 | 12 | 17 | 6.4 | 11.3 | 0.00 | 0.30 | 0.00 | 87 | 1015.6 |
| 20260501172703 | 12 | 16 | 6.4 | 12.9 | 0.00 | 0.30 | 0.00 | 86 | 1015.6 |
| 20260501172203 | 12 | 22 | 6.4 | 9.7 | 0.00 | 0.33 | 0.00 | 86 | 1015.8 |
| 20260501171704 | 12 | 23 | 4.8 | 11.3 | 0.00 | 0.36 | 0.00 | 86 | 1015.7 |
| 20260501171204 | 12 | 40 | 3.2 | 8.0 | 0.00 | 0.36 | 0.00 | 86 | 1015.8 |
| 20260501170704 | 12 | 44 | 3.2 | 4.8 | 0.00 | 0.38 | 0.00 | 86 | 1015.7 |
| 20260501170203 | 12 | 48 | 4.8 | 8.0 | 0.00 | 0.41 | 0.00 | 85 | 1015.7 |
| 20260501165203 | 12 | 4 | 3.2 | 8.0 | 0.00 | 0.43 | 0.00 | 85 | 1015.7 |
| 20260501164703 | 13 | 9 | 3.2 | 9.7 | 0.00 | 0.43 | 0.00 | 84 | 1015.6 |
| 20260501163704 | 13 | 7 | 4.8 | 11.3 | 0.00 | 0.46 | 0.00 | 84 | 1015.6 |
| 20260501163203 | 13 | 0 | 3.2 | 8.0 | 0.00 | 0.48 | 0.00 | 83 | 1015.7 |
| 20260501162703 | 13 | 13 | 4.8 | 8.0 | 0.00 | 0.48 | 0.00 | 83 | 1015.6 |
| 20260501161703 | 13 | 10 | 3.2 | 8.0 | 0.00 | 0.51 | 0.00 | 83 | 1015.6 |
| 20260501161204 | 13 | 16 | 8.0 | 8.0 | 0.00 | 0.51 | 0.00 | 83 | 1015.6 |
| 20260501160704 | 13 | 21 | 4.8 | 4.8 | 0.00 | 0.51 | 0.00 | 82 | 1015.5 |
| 20260501155704 | 13 | 16 | 3.2 | 9.7 | 0.00 | 0.51 | 0.00 | 82 | 1015.5 |
| 20260501155203 | 13 | 22 | 3.2 | 8.0 | 0.00 | 0.51 | 0.00 | 81 | 1015.6 |
| 20260501154203 | 14 | 17 | 6.4 | 11.3 | 0.00 | 0.51 | 0.00 | 80 | 1015.7 |
| 20260501153703 | 14 | 326 | 3.2 | 4.8 | 0.00 | 0.51 | 0.00 | 79 | 1015.7 |
| 20260501153203 | 15 | 336 | 1.6 | 4.8 | 0.00 | 0.51 | 0.00 | 79 | 1015.7 |
| 20260501152704 | 15 | 334 | 3.2 | 8.0 | 0.00 | 0.51 | 0.00 | 78 | 1015.6 |
| 20260501152203 | 15 | 345 | 4.8 | 8.0 | 0.00 | 0.51 | 0.00 | 77 | 1015.7 |
| 20260501151703 | 15 | 188 | 1.6 | 4.8 | 0.00 | 0.51 | 0.00 | 77 | 1015.7 |
| 20260501151204 | 15 | 269 | 3.2 | 11.3 | 0.00 | 0.51 | 0.00 | 77 | 1015.7 |
| 20260501150704 | 15 | 250 | 3.2 | 11.3 | 0.00 | 0.51 | 0.00 | 77 | 1015.6 |
| 20260501150204 | 15 | 253 | 4.8 | 11.3 | 0.00 | 0.51 | 0.00 | 77 | 1015.7 |